Location: Camerons Lookout
(40.9833°S, 175.9333°E)
Time: 22:06:47
(UTC+00:00)

CZ-4 R/B - Pass Details

Date: 14 January 2026
Orbit: 493 x 538 km, 97.6° (Epoch: 18 February)

Event Time Altitude Azimuth Distance (km) Brightness Sun altitude
Rises 08:43:44 0° 164° (SSE) 2,738 5.2 -9.3°
Reaches altitude 10° 08:45:55 10° 160° (SSE) 1,833 4.2 -9.6°
Maximum altitude 08:49:50 58° 80° (E) 641 1.4 -10.2°
Drops below altitude 10° 08:53:39 10° 360° (N) 1,787 3.5 -10.7°
Enters shadow 08:55:02 - 357° (N) 2,358 4.2 -10.9°
